Regional Weather Roundup
Issued by NWS

Home | Current Version | Previous Version | Graphics & Text | Print | Product List | Glossary On
Versions: 1 2 3 4 5 6 7 8 9 10 11 12 13 14 15 16 17 18 19 20 21 22 23 24 25 26 27 28 29 30 31 32 33 34 35 36 37 38 39 40 41 42 43 44 45 46 47 48 49 50
000
ASUS43 KBIS 200202
RWRND

NORTH DAKOTA REGIONAL WEATHER ROUNDUP
NATIONAL WEATHER SERVICE BISMARCK ND
900 PM CDT SAT AUG 19 2017

NOTE: "FAIR" INDICATES FEW OR NO CLOUDS BELOW 12,000 FEET WITH NO
SIGNIFICANT WEATHER AND/OR OBSTRUCTIONS TO VISIBILITY.


NDZ001>003-009>011-017-200300-
NORTHWEST NORTH DAKOTA

CITY           SKY/WX    TMP DP  RH WIND       PRES   REMARKS
WILLISTON      CLOUDY    73  40  30 NW17      29.89R
MINOT          CLEAR     75  50  41 W20G25    29.79R
MINOT AFB      CLEAR     74  48  39 NW21      29.77R
$$

NDZ018>021-031>035-040>046-200300-
SOUTHWEST NORTH DAKOTA

CITY           SKY/WX    TMP DP  RH WIND       PRES   REMARKS
BISMARCK       PTCLDY    80  54  40 NW16      29.79R
DICKINSON      PTCLDY    73  50  44 N10       29.87R
GARRISON         N/A     72  55  55 NW12G24   29.80R
HETTINGER ARPT CLOUDY    74  45  35 NW9       29.88R
$$

NDZ004>008-012>016-024-026-027-054-200300-
NORTHEAST NORTH DAKOTA

CITY           SKY/WX    TMP DP  RH WIND       PRES   REMARKS
GRAND FORKS    CLOUDY    76  65  68 S14       29.71S
GRND FRKS AFB  PTCLDY    74  62  68 S10       29.72S
DEVILS LAKE    CLEAR     76  65  68 S13       29.70R
$$

NDZ022-023-025-028>030-036>039-047>053-200300-
SOUTHEAST NORTH DAKOTA

CITY           SKY/WX    TMP DP  RH WIND       PRES   REMARKS
FARGO          MOCLDY    74  64  71 S13G20    29.76R
JAMESTOWN      CLOUDY    70  63  78 S8        29.74S
$$




USA.gov is the U.S. government's official web portal to all federal, state and local government web resources and services.